Find Starlink 31344

NORAD ID: 59171 Int'l Des: 2024-044 Owner: SPXS Country: US Constellation: starlink operational
LEOCIRCULAR

当前视图

正在加载3D地球...

About Starlink 31344

Starlink 31344 (NORAD 59171) is a starlink constellation satellite (v2 mini) launched Mar 4, 2024 by SPXS of US. It operates in LEO, CIRCULAR orbit with a mass of 730.00 kg.

关于 Starlink 31344

正在加载描述...

即将过境

Passes for default location (London). Set your location on the main map for personalized predictions.

高度历史

Loading altitude history...

两行轨道根数

1 59171U 24044V 26174.42743892 -.00000223 00000-0 14274-5 0 9997
2 59171 43.0029 230.1476 0001898 272.1853 87.8782 15.27584014129762
Epoch: Jun 23, 2026 • Age: 19 hours

当前状态

高度 485.1 km
速度 7.63 km/s
星下点 32.39°N, 5.87°E
发射日期 Mar 4, 2024
运行时间 2.3 years
类型 internet

技术详情

分类 Payload
质量 730.00 kg
干质量 700.00 kg
总质量 730.00 kg
长度 0.30 m
直径 4.10 m
跨度 29.00 m
形状 Box + pan
制造商 SPXS
平台类型 Starlink V2M
阶段状态 In Orbit
所有者/国家 SPXS/US

Most Searched